Cedar City, UT

4:15 PM MST on February 23, 2017 (GMT -0700)
Cedar City Regional

Weather History for KCDC - May, 2014

Change the Weather History Date:

Tuesday, May 6, 2014

  Actual Average Record
Temperature  
Mean Temperature 55 °F 53 °F  
Max Temperature 62 °F 68 °F 87 °F (1989)
Min Temperature 48 °F 37 °F 25 °F (1965)
Degree Days  
Heating Degree Days 10 12  
Month to date heating degree days 40 78  
Since 1 July heating degree days 5861 5964  
Cooling Degree Days 0 0  
Month to date cooling degree days 3 0  
Year to date cooling degree days 3 0  
Moisture  
Dew Point 20 °F    
Average Humidity 22    
Maximum Humidity 36    
Minimum Humidity 8    
Precipitation  
Precipitation 0.00 in 0.03 in 0.39 in (1969)
Month to date precipitation 0.00 0.16  
Year to date precipitation 2.05 4.43  
Sea Level Pressure  
Sea Level Pressure 29.50 in    
Wind  
Wind Speed 19 mph (SSW)    
Max Wind Speed 32 mph    
Max Gust Speed 47 mph    
Visibility 10 miles    
Events      
T = Trace of Precipitation, MM = Missing Value Source: NWS Daily Summary

Daily Weather History Graph

Daily Weather History Graph

Search for Another Location

Airport or City:

Trip Planner

Search our weather history database for the weather conditions in past years. The results will help you decide how hot, cold, wet, or windy it might be!

Date:

Astronomy

May. 06, 2014 Rise Set
Actual Time 6:31 AM MDT 8:27 PM MDT
Civil Twilight 6:02 AM MDT 8:56 PM MDT
Nautical Twilight 5:27 AM MDT 9:30 PM MDT
Astronomical Twilight 4:50 AM MDT 10:08 PM MDT
Moon 12:49 PM MDT (5/6) 1:49 AM MDT (5/6)
Length of Visible Light 14h 53m
Length of Day
13h 56m
Waxing Crescent, 46% of the Moon is Illuminated
May 6
Waxing Crescent
May 6
First Quarter
May 14
Full
May 21
Last Quarter
May 28
New

Hourly Weather History & Observations

Time (MDT) Temp. Windchill Dew Point Humidity Pressure Visibility Wind Dir Wind Speed Gust Speed Precip Events Conditions
12:53 AM 61.0 °F - -2.9 °F 8% 29.54 in 10.0 mi South 18.4 mph 26.5 mph N/A   Clear
5:53 AM 53.1 °F - 21.0 °F 29% 29.50 in 10.0 mi SSW 13.8 mph - N/A   Partly Cloudy
6:53 AM 48.0 °F - 23.0 °F 37% 29.51 in 10.0 mi SW 4.6 mph - N/A   Clear
8:53 AM 55.9 °F - 23.0 °F 28% 29.47 in 10.0 mi SSW 19.6 mph 35.7 mph N/A   Clear
9:53 AM 57.9 °F - 25.0 °F 28% 29.47 in 10.0 mi SSW 21.9 mph 31.1 mph N/A   Clear
10:53 AM 59.0 °F - 25.0 °F 27% 29.47 in 10.0 mi SSW 19.6 mph 33.4 mph N/A   Clear
11:53 AM 60.1 °F - 26.1 °F 27% 29.45 in 10.0 mi SW 21.9 mph 32.2 mph N/A   Partly Cloudy
12:53 PM 61.0 °F - 26.1 °F 26% 29.44 in 10.0 mi SSW 26.5 mph 35.7 mph N/A   Partly Cloudy
1:53 PM 60.1 °F - 26.1 °F 27% 29.44 in 10.0 mi SW 28.8 mph 35.7 mph N/A   Scattered Clouds
2:53 PM 61.0 °F - 23.0 °F 23% 29.43 in 10.0 mi SSW 28.8 mph 39.1 mph N/A   Partly Cloudy
3:53 PM 60.1 °F - 21.0 °F 22% 29.44 in 10.0 mi SW 23.0 mph 41.4 mph N/A   Clear
4:53 PM 59.0 °F - 16.0 °F 19% 29.46 in 10.0 mi SW 26.5 mph 42.6 mph N/A   Partly Cloudy
5:53 PM 57.9 °F - 10.9 °F 16% 29.47 in 10.0 mi SW 21.9 mph 36.8 mph N/A   Clear
6:53 PM 55.9 °F - 10.0 °F 16% 29.50 in 10.0 mi SW 21.9 mph 33.4 mph N/A   Clear
7:53 PM 52.0 °F - 12.9 °F 21% 29.51 in 10.0 mi SSW 19.6 mph 26.5 mph N/A   Clear
8:53 PM 46.0 °F 41.9 °F 23.0 °F 40% 29.55 in 10.0 mi WSW 8.1 mph - N/A   Clear
9:53 PM 39.0 °F 33.4 °F 25.0 °F 57% 29.58 in 10.0 mi WNW 8.1 mph - N/A   Clear
10:53 PM 39.9 °F 35.8 °F 25.0 °F 55% 29.59 in 10.0 mi South 5.8 mph - N/A   Partly Cloudy
11:53 PM 42.1 °F 40.2 °F 24.1 °F 49% 29.59 in 10.0 mi SSE 3.5 mph - N/A   Clear